Simultaneous Nadir Overpasses (SNOs) Predictions

Prediction of SNOs between AQUA and METOP-B Satellite Orbit:

Table of predicted SNOs for the next 14.0 days since TLE Epoch: 7/17/2015
Index Date (AQUA) Time (AQUA) Lat,Lon (AQUA) SZA (AQUA ) Date (METOP-B) Time (METOP-B) Lat,Lon (METOP-B) SZA (METOP-B ) Distance(km) Time Diff (sec)
1 07/19/2015 13:27:22 -73.05, 154.08 127.79 07/19/2015 13:26:16 -73.00, 151.25 127.70 92.01 66
2 07/19/2015 14:17:03 73.74, -39.74 52.97 07/19/2015 14:16:41 73.73, -39.77 52.96 1.80 22
3 07/19/2015 15:06:30 -73.83, 127.71 126.93 07/19/2015 15:07:21 -73.82, 127.78 126.95 2.17 51
4 07/22/2015 09:01:41 -73.42,-140.24 126.85 07/22/2015 09:00:30 -73.39,-141.47 126.82 39.42 71
5 07/22/2015 09:51:15 73.76, 26.68 53.52 07/22/2015 09:51:02 73.77, 26.73 53.53 2.10 13
6 07/22/2015 10:40:42 -73.84,-165.85 126.39 07/22/2015 10:41:43 -73.82,-165.83 126.42 2.55 61
7 07/25/2015 04:35:58 -73.71, -74.40 125.96 07/25/2015 04:34:46 -73.68, -74.40 125.98 3.11 72
8 07/25/2015 05:25:26 73.74, 93.17 54.08 07/25/2015 05:25:24 73.76, 93.11 54.10 2.81 2
9 07/25/2015 06:14:53 -73.81, -99.35 125.84 07/25/2015 06:16:05 -73.81, -99.44 125.85 2.95 72
10 07/28/2015 00:10:08 -73.70, -7.93 125.35 07/28/2015 00:09:06 -73.72, -7.91 125.32 1.87 62
11 07/28/2015 00:59:37 73.79, 159.51 54.76 07/28/2015 00:59:44 73.79, 159.59 54.75 2.52 7
12 07/28/2015 01:49:09 -74.12, -33.58 124.88 07/28/2015 01:50:19 -74.14, -32.23 124.93 41.29 70
13 07/30/2015 19:44:19 -73.71, 58.49 124.67 07/30/2015 19:43:28 -73.70, 58.46 124.68 1.96 51
14 07/30/2015 20:33:47 73.76,-133.96 55.38 07/30/2015 20:34:06 73.76,-134.05 55.39 2.87 19




NCC Satellite Simultaneous Nadir Overpasses (SNOs) Prediction Service
